Hourly Data Report for August 03, 2003

TORONTO CITY
ONTARIO

43°40'00.000" N
79°24'00.000" W
112.50 m
6158355
71508
XTO

Download Data

Hourly Data (August 2003)
Hourly Data Report for August 3, 2003
TIME
LST
Temp Definition
°C
Dew Point Definition
°C
Rel Hum Definition
%
Precip. Amount Definition
mm

Wind Dir Definition
10's deg

Wind Spd Definition
km/h
Visibility Definition
km
Stn Press Definition
kPa
Hmdx Definition


Wind Chill Definition


Weather Definition


00:00 19.3 19.1 99   LegendMM LegendMM LegendMM 100.11     LegendNANA
01:00 19.2 19.0 99   LegendMM LegendMM LegendMM 100.08     LegendNANA
02:00 19.1 18.9 99   LegendMM LegendMM LegendMM 100.09     LegendNANA
03:00 19.3 19.2 99   LegendMM LegendMM LegendMM 100.11     LegendNANA
04:00 19.2 19.0 99   LegendMM LegendMM LegendMM 100.10     LegendNANA
05:00 19.1 18.9 99   LegendMM LegendMM LegendMM 100.13     LegendNANA
06:00 19.3 19.1 99   LegendMM LegendMM LegendMM 100.13     LegendNANA
07:00 20.0 19.8 99   LegendMM LegendMM LegendMM 100.14 27   LegendNANA
08:00 20.7 20.3 98   LegendMM LegendMM LegendMM 100.18 29   LegendNANA
09:00 20.7 20.0 96   LegendMM LegendMM LegendMM 100.17 28   LegendNANA
10:00 21.2 20.1 93   LegendMM LegendMM LegendMM 100.15 29   LegendNANA
11:00 21.2 19.7 91   LegendMM LegendMM LegendMM 100.15 29   LegendNANA
12:00 21.5 20.3 93   LegendMM LegendMM LegendMM 100.14 29   LegendNANA
13:00 21.9 20.9 94   LegendMM LegendMM LegendMM 100.10 30   LegendNANA
14:00 22.6 20.9 90   LegendMM LegendMM LegendMM 100.07 31   LegendNANA
15:00 21.7 20.9 95   LegendMM LegendMM LegendMM 100.02 30   LegendNANA
16:00 22.2 21.5 96   LegendMM LegendMM LegendMM 99.99 31   LegendNANA
17:00 21.8 21.1 96   LegendMM LegendMM LegendMM 99.93 30   LegendNANA
18:00 21.5 20.7 95   LegendMM LegendMM LegendMM 99.87 30   LegendNANA
19:00 21.3 20.4 95   LegendMM LegendMM LegendMM 99.85 29   LegendNANA
20:00 21.4 20.4 94   LegendMM LegendMM LegendMM 99.91 29   LegendNANA
21:00 21.1 20.2 95   LegendMM LegendMM LegendMM 99.89 29   LegendNANA
22:00 21.2 20.5 96   LegendMM LegendMM LegendMM 99.86 29   LegendNANA
23:00 20.9 20.4 97   LegendMM LegendMM LegendMM 99.85 29   LegendNANA

Notes on Data Quality.

Legend

  • E = Estimated
  • M = Missing
  • NA = Not Available*
  • [empty] = Indicates an unobserved value
Date modified: